Weather History for Plattsburgh, NY

Change the Weather History Date:

Saturday, January 19, 2013

  Actual Average Record
Temperature  
Mean Temperature 28 °F 16 °F  
Max Temperature 37 °F 27 °F 53 °F (1949)
Min Temperature 18 °F 5 °F -25 °F (1976)
Degree Days  
Heating Degree Days 37 49  
Month to date heating degree days 802 906  
Since 1 July heating degree days 3461 3792  
Moisture  
Dew Point 18 °F    
Average Humidity 74    
Maximum Humidity 92    
Minimum Humidity 56    
Precipitation  
Precipitation 0.07 in - 0.30 in (1960)
Month to date precipitation 0.27  
Year to date precipitation 0.27  
Sea Level Pressure  
Sea Level Pressure 29.99 in    
Wind  
Wind Speed 7 mph (South)    
Max Wind Speed 13 mph    
Max Gust Speed 17 mph    
Visibility 5 miles    
Events Snow    
T = Trace of Precipitation, MM = Missing Value Source: NWS Daily Summary

Daily Weather History Graph

Daily Weather History Graph

Search for Another Location

Airport:

Trip Planner

Search our weather history database for the weather conditions in past years. The results will help you decide how hot, cold, wet, or windy it might be!

Date:

Astronomy

Jan. 19, 2013 Rise Set
Actual Time 7:24 AM EST 4:45 PM EST
Civil Twilight 6:52 AM EST 5:17 PM EST
Nautical Twilight 6:16 AM EST 5:53 PM EST
Astronomical Twilight 5:42 AM EST 6:27 PM EST
Moon 11:12 AM EST (1/19) 12:52 AM EST (1/19)
Length of Visible Light 10h 24m
Length of Day
9h 20m
First Quarter, 57% of the Moon is Illuminated
Jan 19
First Quarter
Jan 26
Full
Feb 3
Last Quarter
Feb 10
New
Feb 17
First Quarter

Hourly Weather History & Observations

Time (EST) Temp. Windchill Dew Point Humidity Pressure Visibility Wind Dir Wind Speed Gust Speed Precip Events Conditions
12:05 AM 19.4 °F 8.6 °F 12.2 °F 74% 30.18 in 1.8 mi South 9.2 mph - 0.00 in Snow Light Snow
12:23 AM 17.6 °F 6.4 °F 14.0 °F 86% 30.18 in 1.2 mi South 9.2 mph - 0.00 in Snow Light Snow
12:53 AM 18.0 °F 6.9 °F 14.0 °F 84% 30.16 in 1.5 mi South 9.2 mph - 0.00 in Snow Light Snow
1:33 AM 19.4 °F 7.9 °F 15.8 °F 86% 30.13 in 2.5 mi South 10.4 mph - 0.00 in Snow Light Snow
1:42 AM 19.4 °F 7.2 °F 14.0 °F 80% 30.13 in 4.0 mi South 11.5 mph - 0.00 in Snow Light Snow
1:53 AM 19.0 °F 8.2 °F 14.0 °F 81% 30.14 in 3.0 mi South 9.2 mph - 0.00 in Snow Light Snow
2:01 AM 19.4 °F 8.6 °F 14.0 °F 80% 30.12 in 3.0 mi South 9.2 mph - 0.00 in Snow Light Snow
2:31 AM 19.4 °F 10.4 °F 15.8 °F 86% 30.10 in 2.5 mi South 6.9 mph - 0.00 in Snow Light Snow
2:41 AM 19.4 °F 9.5 °F 15.8 °F 86% 30.10 in 1.2 mi South 8.1 mph - 0.00 in Snow Light Snow
2:53 AM 19.9 °F 9.3 °F 16.0 °F 85% 30.11 in 1.8 mi South 9.2 mph - 0.00 in Snow Light Snow
3:20 AM 19.4 °F 8.6 °F 15.8 °F 86% 30.07 in 1.2 mi South 9.2 mph - 0.00 in Snow Light Snow
3:53 AM 19.9 °F 8.6 °F 17.1 °F 89% 30.07 in 1.0 mi South 10.4 mph - 0.00 in Snow Light Snow
4:28 AM 19.4 °F 9.5 °F 17.6 °F 93% 30.03 in 1.2 mi South 8.1 mph 17.3 mph 0.00 in Snow Light Snow
4:53 AM 19.9 °F 9.3 °F 17.1 °F 89% 30.04 in 1.5 mi South 9.2 mph - 0.00 in Snow Light Snow
5:17 AM 21.2 °F 10.1 °F 17.6 °F 86% 30.01 in 2.5 mi South 10.4 mph - 0.00 in Snow Light Snow
5:34 AM 21.2 °F 11.7 °F 17.6 °F 86% 30.01 in 1.8 mi South 8.1 mph - 0.00 in Snow Light Snow
5:41 AM 21.2 °F 9.5 °F 17.6 °F 86% 30.01 in 3.0 mi South 11.5 mph - 0.00 in Snow Light Snow
5:53 AM 21.0 °F 10.6 °F 18.0 °F 88% 30.02 in 2.5 mi South 9.2 mph - 0.00 in Snow Light Snow
6:01 AM 21.2 °F 10.9 °F 17.6 °F 86% 30.00 in 2.0 mi South 9.2 mph - 0.00 in Snow Light Snow
6:10 AM 21.2 °F 10.1 °F 17.6 °F 86% 30.00 in 2.0 mi South 10.4 mph - 0.00 in Snow Light Snow
6:21 AM 21.2 °F 10.1 °F 17.6 °F 86% 30.00 in 1.8 mi South 10.4 mph - 0.00 in Snow Light Snow
6:29 AM 21.2 °F 10.9 °F 19.4 °F 93% 30.00 in 2.0 mi South 9.2 mph - 0.00 in Snow Light Snow
6:40 AM 21.2 °F 11.7 °F 19.4 °F 93% 29.99 in 1.8 mi South 8.1 mph - 0.00 in Snow Light Snow
6:53 AM 21.9 °F 12.5 °F 19.0 °F 89% 30.00 in 2.0 mi South 8.1 mph - 0.00 in Snow Light Snow
7:32 AM 23.0 °F 13.1 °F 19.4 °F 86% 29.98 in 1.5 mi South 9.2 mph - 0.00 in Snow Light Snow
7:53 AM 23.0 °F 13.9 °F 19.0 °F 85% 29.99 in 1.8 mi SSE 8.1 mph - 0.00 in Snow Light Snow
8:02 AM 23.0 °F 14.7 °F 19.4 °F 86% 29.98 in 2.0 mi South 6.9 mph - 0.00 in Snow Light Snow
8:11 AM 24.8 °F 16.9 °F 19.4 °F 80% 29.97 in 4.0 mi South 6.9 mph - 0.00 in Snow Light Snow
8:53 AM 25.0 °F 18.1 °F 17.1 °F 72% 29.99 in 10.0 mi South 5.8 mph - 0.00 in   Overcast
9:53 AM 27.0 °F 19.5 °F 16.0 °F 63% 29.96 in 10.0 mi South 6.9 mph - N/A   Overcast
10:53 AM 28.0 °F 22.8 °F 17.1 °F 63% 29.94 in 10.0 mi South 4.6 mph - N/A   Overcast
11:53 AM 30.0 °F 22.4 °F 17.1 °F 59% 29.90 in 10.0 mi South 8.1 mph - N/A   Overcast
12:53 PM 32.0 °F 25.6 °F 19.0 °F 59% 29.89 in 10.0 mi South 6.9 mph - N/A   Overcast
1:53 PM 33.1 °F 25.5 °F 19.9 °F 59% 29.89 in 10.0 mi South 9.2 mph - N/A   Overcast
2:53 PM 34.0 °F 28.8 °F 21.9 °F 61% 29.88 in 10.0 mi SSE 5.8 mph - N/A   Overcast
3:53 PM 34.0 °F 29.8 °F 23.0 °F 64% 29.88 in 10.0 mi SE 4.6 mph - 0.02 in   Overcast
4:53 PM 35.1 °F 29.3 °F 24.1 °F 64% 29.87 in 10.0 mi SSE 6.9 mph - 0.02 in   Overcast
5:53 PM 36.0 °F 30.3 °F 24.1 °F 62% 29.86 in 10.0 mi SSE 6.9 mph - 0.02 in   Overcast
6:53 PM 36.0 °F 31.1 °F 24.1 °F 62% 29.85 in 10.0 mi South 5.8 mph - 0.01 in   Overcast
7:53 PM 34.0 °F - 24.1 °F 67% 29.83 in 10.0 mi Calm Calm - N/A   Overcast
8:53 PM 30.0 °F - 25.0 °F 82% 29.79 in 10.0 mi Calm Calm - N/A   Overcast
9:53 PM 30.9 °F - 26.1 °F 82% 29.75 in 10.0 mi Calm Calm - N/A   Mostly Cloudy
10:53 PM 34.0 °F 31.0 °F 25.0 °F 70% 29.73 in 10.0 mi SSW 3.5 mph - N/A   Overcast